Bournemouth, United Kingdom

4:31 PM GMT on February 25, 2017 (GMT +0000)
Bournemouth

Weather History for EGHH - December, 2013

Change the Weather History Date:

Thursday, December 26, 2013

  Actual Average Record
Temperature  
Mean Temperature 40 °F -  
Max Temperature 50 °F 46 °F 58 °F (2015)
Min Temperature 29 °F 34 °F 14 °F (2010)
Degree Days  
Heating Degree Days 26    
Moisture  
Dew Point 37 °F    
Average Humidity 88    
Maximum Humidity 100    
Minimum Humidity 68    
Precipitation  
Precipitation 0.01 in 0.12 in - ()
Sea Level Pressure  
Sea Level Pressure 29.42 in    
Wind  
Wind Speed 5 mph ()    
Max Wind Speed 28 mph    
Max Gust Speed -    
Visibility 6.6 miles    
Events Fog , Rain    
Averages and records for this station are not official NWS values.
T = Trace of Precipitation, MM = Missing Value Source: Averaged Metar Reports

Daily Weather History Graph

Daily Weather History Graph

Search for Another Location

Airport or City:

Trip Planner

Search our weather history database for the weather conditions in past years. The results will help you decide how hot, cold, wet, or windy it might be!

Date:

Astronomy

Dec. 26, 2013 Rise Set
Actual Time 8:08 AM GMT 4:07 PM GMT
Civil Twilight 7:29 AM GMT 4:46 PM GMT
Nautical Twilight 6:47 AM GMT 5:28 PM GMT
Astronomical Twilight 6:07 AM GMT 6:08 PM GMT
Moon 12:51 AM GMT (12/26) 12:02 PM GMT (12/26)
Length of Visible Light 9h 16m
Length of Day
7h 58m
Last Quarter, 41% of the Moon is Illuminated
Dec 26
Last Quarter
Jan 1
New
Jan 8
First Quarter
Jan 16
Full
Jan 24
Last Quarter

Hourly Weather History & Observations

Time (GMT) Temp. Windchill Dew Point Humidity Pressure Visibility Wind Dir Wind Speed Gust Speed Precip Events Conditions
12:00 AM 34 °F - 34 °F 99% 29.19 in 0 mi WNW 3.5 mph - - Fog Fog
1:00 AM 34 °F - 34 °F 99% 29.21 in 0 mi NNW 2.3 mph - - Fog Fog
2:00 AM 34 °F - 34 °F 99% 29.23 in 1 mi West 5.8 mph - - Fog Fog
3:00 AM 32 °F - 32 °F 100% 29.25 in 0 mi West 1.2 mph - - Fog Fog
4:00 AM 30 °F - 30 °F 99% 29.28 in 1 mi Calm Calm - - Fog Fog
4:50 AM 32.0 °F - 30.2 °F 93% 29.30 in 6.2 mi NE 1.2 mph - N/A Fog Shallow Fog
5:00 AM 31 °F - 31 °F 100% 29.31 in 1 mi NE 1.2 mph - - Fog Fog
5:20 AM 30.2 °F 26.7 °F 30.2 °F 100% 29.30 in 6.2 mi NNW 3.5 mph - N/A   Scattered Clouds
5:50 AM 32.0 °F 28.7 °F 30.2 °F 93% 29.33 in 6.2 mi NNW 3.5 mph - N/A   Partly Cloudy
6:00 AM 31 °F - 31 °F 100% 29.34 in 4 mi NW 3.5 mph - - Fog Fog
6:20 AM 32.0 °F 25.6 °F 32.0 °F 100% 29.36 in - WNW 6.9 mph - N/A   Clear
6:50 AM 30.2 °F 23.4 °F 30.2 °F 100% 29.36 in - West 6.9 mph - N/A   Clear
7:00 AM 31 °F - 31 °F 100% 29.37 in 7 mi West 6.9 mph - -   Scattered Clouds
7:20 AM 30.2 °F 23.4 °F 30.2 °F 100% 29.39 in - West 6.9 mph - N/A   Clear
7:50 AM 33.8 °F 26.4 °F 33.8 °F 100% 29.39 in - West 9.2 mph - N/A   Clear
8:00 AM 33 °F - 33 °F 98% 29.40 in 9 mi West 9.2 mph - -   Scattered Clouds
8:20 AM 33.8 °F 29.6 °F 33.8 °F 100% 29.42 in 6.2 mi West 4.6 mph - N/A Fog Shallow Fog
8:50 AM 33.8 °F - 33.8 °F 100% 29.42 in 6.2 mi WSW 2.3 mph - N/A Fog Shallow Fog
9:00 AM 34 °F - 34 °F 99% 29.43 in 4 mi WSW 2.3 mph - - Fog Fog
9:20 AM 32.0 °F - 32.0 °F 100% 29.42 in 6.2 mi ESE 1.2 mph - N/A Fog Shallow Fog
9:50 AM 35.6 °F - 33.8 °F 93% 29.44 in 6.2 mi ENE 1.2 mph - N/A Fog Shallow Fog
10:00 AM 35 °F - 35 °F 97% 29.45 in 4 mi ENE 1.2 mph - - Fog Fog
10:20 AM 35.6 °F - 35.6 °F 100% 29.44 in 6.2 mi Calm Calm - N/A Fog Shallow Fog
10:50 AM 39.2 °F - 39.2 °F 100% 29.47 in - East 1.2 mph - N/A   Clear
11:00 AM 38 °F - 38 °F 100% 29.47 in 11 mi East 1.2 mph - - Fog Fog
11:20 AM 42.8 °F - 41.0 °F 93% 29.47 in - West 2.3 mph - N/A   Clear
11:50 AM 44.6 °F 42.2 °F 39.2 °F 81% 29.47 in - West 4.6 mph - N/A   Clear
12:00 PM 44 °F - 40 °F 79% 29.48 in 22 mi West 4.6 mph - -  
12:20 PM 46.4 °F 43.5 °F 41.0 °F 81% 29.47 in - WSW 5.8 mph - N/A   Clear
1:00 PM 46 °F - 40 °F 73% 29.49 in 28 mi West 5.8 mph - -  
1:20 PM 48.2 °F - 41.0 °F 76% 29.47 in - WSW 8.1 mph - N/A   Clear
1:50 PM 48.2 °F - 41.0 °F 76% 29.47 in - WSW 8.1 mph - N/A   Clear
2:00 PM 48 °F - 41 °F 68% 29.50 in 22 mi WSW 8.1 mph - -  
2:20 PM 48.2 °F - 41.0 °F 76% 29.47 in - WSW 8.1 mph - N/A   Clear
2:50 PM 46.4 °F 42.9 °F 41.0 °F 81% 29.50 in 6.2 mi WSW 6.9 mph - N/A   Partly Cloudy
3:00 PM 47 °F - 40 °F 71% 29.51 in 17 mi WSW 6.9 mph - -  
3:20 PM 44.6 °F 40.2 °F 41.0 °F 87% 29.50 in 6.2 mi SW 8.1 mph - N/A   Partly Cloudy
3:50 PM 42.8 °F 40.1 °F 39.2 °F 87% 29.50 in 6.2 mi SW 4.6 mph - N/A   Partly Cloudy
4:00 PM 43 °F - 40 °F 83% 29.52 in 17 mi SW 4.6 mph - -  
4:20 PM 42.8 °F 40.1 °F 39.2 °F 87% 29.50 in 6.2 mi SSW 4.6 mph - N/A   Partly Cloudy
4:50 PM 42.8 °F 40.1 °F 41.0 °F 93% 29.50 in - South 4.6 mph - N/A   Clear
5:00 PM 43 °F - 40 °F 85% 29.51 in 14 mi South 4.6 mph - -   Mostly Cloudy
5:20 PM 42.8 °F 39.3 °F 39.2 °F 87% 29.50 in - SSW 5.8 mph - N/A   Clear
5:50 PM 44.6 °F 42.2 °F 39.2 °F 81% 29.47 in - South 4.6 mph - N/A   Clear
6:00 PM 44 °F - 40 °F 79% 29.50 in 11 mi South 4.6 mph - -   Overcast
6:20 PM 44.6 °F 40.2 °F 41.0 °F 87% 29.47 in - South 8.1 mph - N/A   Clear
6:50 PM 46.4 °F 41.5 °F 41.0 °F 81% 29.47 in - SSW 10.4 mph - N/A   Clear
7:00 PM 47 °F - 41 °F 73% 29.48 in 11 mi SSW 11.5 mph - -   Partly Cloudy
7:20 PM 48.2 °F - 42.8 °F 82% 29.44 in - SSW 12.7 mph - N/A   Clear
7:50 PM 48.2 °F - 42.8 °F 82% 29.42 in 6.2 mi SSW 17.3 mph - N/A   Partly Cloudy
8:00 PM 48 °F - 42 °F 74% 29.44 in 12 mi SSW 17.3 mph - - Rain Rain
8:20 PM 48.2 °F - 42.8 °F 82% 29.42 in 6.2 mi SSW 16.1 mph - N/A   Partly Cloudy
8:50 PM 50.0 °F - 42.8 °F 76% 29.39 in 6.2 mi SSW 20.7 mph - N/A   Scattered Clouds
9:00 PM 49 °F - 43 °F 71% 29.41 in 9 mi SSW 19.6 mph - -   Mostly Cloudy
9:20 PM 46.4 °F 39.2 °F 41.0 °F 81% 29.39 in 5.0 mi SSW 18.4 mph - N/A Rain Rain
10:00 PM 47 °F - 41 °F 73% 29.37 in 7 mi South 24.2 mph - - Rain Light Rain
11:00 PM 48 °F - 44 °F 81% 29.30 in 7 mi South 27.6 mph - - Rain Light Rain